Regional Weather Roundup
Issued by NWS Sterling, VA

Home | Current Version | Previous Version | Graphics & Text | Print | Product List | Glossary On
Versions: 1 2 3 4 5 6 7 8 9 10 11 12 13 14 15 16 17 18 19 20 21 22 23 24 25 26 27 28 29 30 31 32 33 34 35 36 37 38 39 40 41 42 43 44 45 46 47 48 49 50
000
ASUS41 KLWX 221911
RWRLWX

REGIONAL WEATHER ROUNDUP
NATIONAL WEATHER SERVICE BALTIMORE MD/WASHINGTON DC
200 PM EST WED NOV 22 2017

Note: "FAIR" indicates few or no clouds below 12,000 feet
with no significant weather and/or obstructions to visibility.
 TC=TEMPERATURE CELSIUS

 * =Non NWS site. Station does not report precipitation (e.g. rain,
    snow, etc.), thunder, or fog.

DCZ001-MDZ009-015-VAZ040>042-051-053>054-222000-
WASHINGTON METRO

CITY           SKY/WX    TMP DP  RH WIND       PRES   REMARKS
WASHINGTON NAT MOSUNNY   53  30  41 N25G32    30.03R
DULLES         MOSUNNY   51  29  42 N21G26    30.04R
ANDREWS AFB    SUNNY     51  29  41 NW24G31   30.00R
FT BELVOIR     MOSUNNY   53  29  39 NW20G26   30.02S
COLLEGE PARK*  SUNNY     51  28  39 NW14G25   30.02R
LEESBURG*      PTSUNNY   52  32  46 NW20G25   30.05S
MANASSAS*      SUNNY     52  30  43 NW17G25   30.05R
GAITHERSBURG*  PTSUNNY   47  28  47 NW9G26    30.03S

$$

MDZ006>007-011-014-222000-
BALTIMORE METRO

CITY           SKY/WX    TMP DP  RH WIND       PRES   REMARKS
BWI AIRPORT    MOSUNNY   52  30  43 NW20G30   30.01R
MD SCIENCE CTR   N/A     53  28  38 MISG      30.03R
MARTIN STATE   MOSUNNY   54  32  43 W23G29    30.01R
ANNAPOLIS      SUNNY     53  34  48 NW17G28   30.00R
FORT MEADE*    MOSUNNY   52  30  43 NW13G25   30.04R

$$

MDZ012-015-019>023-222000-
MARYLAND EASTERN SHORE

CITY           SKY/WX    TMP DP  RH WIND       PRES   REMARKS
OCEAN CITY     SUNNY     59  39  47 N18G28    29.92S
SALISBURY      SUNNY     58  37  45 NW17G28   29.93R
BAY BRIDGE AP* SUNNY     54  34  47 NW15G25   29.99R
CAMBRIDGE*     SUNNY     55  36  47 NW17G28   29.96S
EASTON*        MOSUNNY   55  32  41 NW15G25   30.01R

$$

MDZ017>025-222000-
SOUTHERN MARYLAND

CITY           SKY/WX    TMP DP  RH WIND       PRES   REMARKS
PATUXENT RIVER MOSUNNY   56  37  49 NW20      29.97R
ST INIGOES     SUNNY     58  36  43 NW17G28   29.97R
LEONARDTOWN*   SUNNY     55  34  44 NW9G18    29.99S

$$

MDZ003>005-222000-
NORTH CENTRAL MARYLAND

CITY           SKY/WX    TMP DP  RH WIND       PRES   REMARKS
FREDERICK*     PTSUNNY   48  25  40 NW15G21   30.09R
HAGERSTOWN APT CLOUDY    46  28  49 NW23G30   30.06R
WESTMINSTER*   CLOUDY    46  28  49 N13G21    30.02S

$$

MDZ501>502-222000-
WESTERN MARYLAND

CITY           SKY/WX    TMP DP  RH WIND       PRES   REMARKS
OAKLAND*       CLOUDY    27  27 100 NW8       30.03S WCI  18
CUMBERLAND*    CLOUDY    43  30  61 NW13G24   30.15S

$$

VAZ025>031-222000-
SHENANDOAH VALLEY

CITY           SKY/WX    TMP DP  RH WIND       PRES   REMARKS
WINCHESTER*    CLOUDY    43  28  56 NW13G20   30.08R
FRONT ROYAL*   SUNNY     46  27  46 MISG      30.07R
LURAY*         SUNNY     46  27  46 W14G21    30.08R
NEW MARKET*    MOSUNNY   45  23  41 N10G17    30.08S
STAUNTON*      SUNNY     48  25  40 N16G23    30.07R
WAYNESBORO*    SUNNY     50  24  36 NW15G21   30.03R

$$

WVZ021-048>050-054>055-222000-
EASTERN WEST VIRGINIA PANHANDLE

CITY           SKY/WX    TMP DP  RH WIND       PRES   REMARKS
MARTINSBURG    PTSUNNY   49  27  42 NW17G28   30.06R
PETERSBURG*    CLOUDY    41  26  54 NW14G21   30.13S

$$

VAZ036>039-050-222000-
CENTRAL FOOTHILLS

CITY           SKY/WX    TMP DP  RH WIND       PRES   REMARKS
CHARLOTTESVILL SUNNY     57  27  31 NW9G16    30.02R
CULPEPER*      SUNNY     55  26  32 NW13G20   30.05R
ORANGE*        SUNNY     55  28  35 NW14      30.02R
GORDONSVILLE*  SUNNY     56  26  31 N8G18     30.01R
WARRENTON*     NOT AVBL

$$

VAZ055>057-222000-
NORTH AND CENTRAL PIEDMONT

CITY           SKY/WX    TMP DP  RH WIND       PRES   REMARKS
FREDERICKSBRG* SUNNY     56  34  42 N12G22    30.01S
STAFFORD*      SUNNY     53  32  44 N16G25    30.06R

$$

NCZ024-NYZ072-PAZ021-071-VAZ022-071-222000-
OTHER REGIONAL OBSERVATIONS

CITY           SKY/WX    TMP DP  RH WIND       PRES   REMARKS
NEW YORK CITY  MOSUNNY   51  37  58 NW10G18   29.91R
PHILADELPHIA   MOSUNNY   54  32  43 NW24G32   29.95R
PITTSBURGH     FLURRIES  34  26  72 NW14      30.18S WCI  25
ROANOKE        MOSUNNY   53  27  36 W13G22    30.08R
RICHMOND       MOSUNNY   62  34  35 N17G23    29.98R
RALEIGH        MOSUNNY   61  30  31 N12G21    30.01S

$$

ANZ530>537-222000-
MARINE OBSERVATIONS

STATION/POSITION TIME  TEMP    WIND        PRES
                       AIR SEA DIR/SP/G
                 (UTC) (F)     (DEG/KT/KT) (MB)
THOMAS PT LIGHT  1800   53 53  320/ 17/ 21   N/A
BALT KEY BRIDGE  1848   51     310/ 20/ 23 1015.6R
COVE POINT       1848   53     350/ 22/ 28 1015.6R
LEWISETTA        1848   55 52  330/ 16/ 24 1015.1R
SOLOMONS ISLAND  1848   54 54  320/ 15/ 19 1014.8R
PINEY POINT      1836          330/ 24/ 26   N/A

$$




USA.gov is the U.S. government's official web portal to all federal, state and local government web resources and services.